This is the latest recevied weather packets stored in our database for station/object WI5KEY. If no packets are shown the sender has not sent any weather packets the latest 10 day(s).
| Time | Temp. | Humidity | Pressure | Rain* | Wind** | Luminosity | Snow |
|---|---|---|---|---|---|---|---|
| 1777933850 | 27.22° C | 65% | 1010 hPa | 0 mm | - | - | - |
| 1777933009 | 27.78° C | 65% | 1010 hPa | 0 mm | - | - | - |
| 1777932068 | 27.78° C | 65% | 1010 hPa | 0 mm | - | - | - |
| 1777931152 | 27.78° C | 64% | 1010.1 hPa | 0 mm | - | - | - |
| 1777930250 | 27.22° C | 67% | 1010.5 hPa | 0 mm | - | - | - |
| 1777929338 | 27.22° C | 67% | 1011 hPa | 0 mm | - | - | - |
| 1777928436 | 27.22° C | 64% | 1011.1 hPa | 0 mm | - | - | - |
| 1777927534 | 27.22° C | 64% | 1011.3 hPa | 0 mm | - | - | - |
| 1777926633 | 27.78° C | 66% | 1011.6 hPa | 0 mm | - | - | - |
| 1777924838 | 27.22° C | 64% | 1011.8 hPa | 0 mm | - | - | - |
| 1777923927 | 27.78° C | 63% | 1012.1 hPa | 0 mm | - | - | - |
| 1777923026 | 27.78° C | 63% | 1012.4 hPa | 0 mm | - | - | - |
| 1777922137 | 27.78° C | 65% | 1012.5 hPa | 0 mm | - | - | - |
| 1777921224 | 27.78° C | 63% | 1012.4 hPa | 0 mm | - | - | - |
| 1777920320 | 27.78° C | 63% | 1013 hPa | 0 mm | - | - | - |
| 1777919434 | 27.22° C | 65% | 1013 hPa | 0 mm | - | - | - |
| 1777918523 | 26.67° C | 66% | 1013.2 hPa | 0 mm | - | - | - |
| 1777917613 | 26.67° C | 67% | 1013.3 hPa | 0 mm | - | - | - |
| 1777916715 | 26.67° C | 65% | 1013.7 hPa | 0 mm | - | - | - |
| 1777915807 | 26.67° C | 67% | 1013.9 hPa | 0 mm | - | - | - |
| 1777914905 | 26.11° C | 70% | 1014.1 hPa | 0 mm | - | - | - |
| 1777914069 | 25.56° C | 70% | 1014.2 hPa | 0 mm | - | - | - |
| 1777913160 | 25° C | 72% | 1014.4 hPa | 0 mm | - | - | - |
| 1777912257 | 25° C | 72% | 1014.5 hPa | 0 mm | - | - | - |
| 1777911355 | 24.44° C | 74% | 1014.7 hPa | 0 mm | - | - | - |
* Rain latest hour (hover to see other rain measurements)
** Current wind speed in m/s (hover to see current wind gust speed)